Meteo pe oră la Bolshie Polyany

Astăzi, 9 Mai, Duminică

Timp Temperatura Precipitaţii Vânt Presiune Umiditate
00:00 +2°C° 0.4 mm 6 m/s 737 mmHg 88%
01:00 +1°C° 0.4 mm 6 m/s 737 mmHg 87%
02:00 +1°C° 0.4 mm 6 m/s 738 mmHg 86%
03:00 +1°C° 0.2 mm 5 m/s 739 mmHg 88%
04:00 +1°C° 0.2 mm 5 m/s 739 mmHg 90%
05:00 0°C° 0.2 mm 5 m/s 740 mmHg 92%
06:00 +1°C° 0.2 mm 5 m/s 740 mmHg 90%
07:00 +1°C° 0.2 mm 5 m/s 741 mmHg 89%
08:00 +1°C° 0.2 mm 5 m/s 742 mmHg 87%
09:00 +3°C° 0 mm 5 m/s 742 mmHg 78%
10:00 +5°C° 0 mm 6 m/s 743 mmHg 69%
11:00 +7°C° 0 mm 6 m/s 743 mmHg 61%
12:00 +8°C° 0 mm 5 m/s 744 mmHg 55%
13:00 +9°C° 0 mm 5 m/s 744 mmHg 50%
14:00 +10°C° 0 mm 5 m/s 744 mmHg 45%
15:00 +10°C° 0 mm 5 m/s 745 mmHg 46%
16:00 +11°C° 0 mm 4 m/s 745 mmHg 48%
17:00 +11°C° 0 mm 4 m/s 746 mmHg 50%
18:00 +8°C° 0 mm 4 m/s 747 mmHg 57%
19:00 +7°C° 0 mm 3 m/s 747 mmHg 65%
20:00 +5°C° 0 mm 2 m/s 748 mmHg 72%
21:00 +4°C° 0 mm 2 m/s 749 mmHg 73%
22:00 +3°C° 0 mm 2 m/s 749 mmHg 73%
23:00 +3°C° 0 mm 2 m/s 750 mmHg 74%

Mâine, 10 Mai, Luni

Timp Temperatura Precipitaţii Vânt Presiune Umiditate
00:00 +2°C° 0 mm 2 m/s 750 mmHg 74%
01:00 +2°C° 0 mm 2 m/s 751 mmHg 74%
02:00 +2°C° 0 mm 2 m/s 751 mmHg 74%
03:00 +3°C° 0 mm 1 m/s 751 mmHg 72%
04:00 +3°C° 0 mm 1 m/s 752 mmHg 71%
05:00 +4°C° 0 mm 1 m/s 752 mmHg 70%
06:00 +6°C° 0 mm 1 m/s 753 mmHg 62%
07:00 +7°C° 0 mm 0 m/s 753 mmHg 55%
08:00 +10°C° 0 mm 0 m/s 753 mmHg 47%
09:00 +11°C° 0 mm 0 m/s 753 mmHg 43%
10:00 +13°C° 0 mm 0 m/s 753 mmHg 40%
11:00 +15°C° 0 mm 1 m/s 753 mmHg 36%
12:00 +15°C° 0 mm 1 m/s 753 mmHg 35%
13:00 +16°C° 0 mm 1 m/s 753 mmHg 35%
14:00 +16°C° 0 mm 1 m/s 753 mmHg 34%
15:00 +16°C° 0 mm 1 m/s 753 mmHg 39%
16:00 +15°C° 0 mm 1 m/s 753 mmHg 43%
17:00 +15°C° 0 mm 1 m/s 753 mmHg 47%
18:00 +13°C° 0 mm 1 m/s 753 mmHg 53%
19:00 +11°C° 0 mm 1 m/s 753 mmHg 59%
20:00 +9°C° 0 mm 1 m/s 753 mmHg 65%
21:00 +8°C° 0 mm 1 m/s 753 mmHg 67%
22:00 +8°C° 0 mm 1 m/s 753 mmHg 69%
23:00 +7°C° 0 mm 1 m/s 753 mmHg 71%

Poimâine, 11 Mai, Marţi

Timp Temperatura Precipitaţii Vânt Presiune Umiditate
00:00 +7°C° 0 mm 1 m/s 753 mmHg 72%
01:00 +6°C° 0 mm 1 m/s 754 mmHg 73%
02:00 +6°C° 0 mm 1 m/s 754 mmHg 74%
03:00 +6°C° 0 mm 1 m/s 754 mmHg 75%
04:00 +6°C° 0 mm 1 m/s 754 mmHg 76%
05:00 +5°C° 0 mm 2 m/s 754 mmHg 77%
06:00 +7°C° 0 mm 2 m/s 754 mmHg 69%
07:00 +10°C° 0 mm 3 m/s 754 mmHg 61%
08:00 +12°C° 0 mm 3 m/s 754 mmHg 53%
09:00 +13°C° 0 mm 3 m/s 754 mmHg 48%
10:00 +14°C° 0 mm 4 m/s 753 mmHg 44%
11:00 +17°C° 0 mm 4 m/s 753 mmHg 40%
12:00 +17°C° 0 mm 4 m/s 753 mmHg 40%
13:00 +18°C° 0 mm 4 m/s 753 mmHg 40%
14:00 +18°C° 0 mm 4 m/s 752 mmHg 39%
15:00 +18°C° 0 mm 4 m/s 752 mmHg 45%
16:00 +18°C° 0 mm 3 m/s 752 mmHg 50%
17:00 +17°C° 0 mm 3 m/s 752 mmHg 56%
18:00 +14°C° 0 mm 3 m/s 752 mmHg 64%
19:00 +13°C° 0 mm 2 m/s 752 mmHg 73%
20:00 +10°C° 0 mm 2 m/s 752 mmHg 81%
21:00 +10°C° 0 mm 2 m/s 752 mmHg 83%
22:00 +9°C° 0 mm 2 m/s 752 mmHg 84%
23:00 +9°C° 0 mm 2 m/s 751 mmHg 85%

12 Mai, Miercuri

Timp Temperatura Precipitaţii Vânt Presiune Umiditate
00:00 +8°C° 0 mm 2 m/s 751 mmHg 86%
01:00 +8°C° 0 mm 2 m/s 751 mmHg 86%
02:00 +8°C° 0 mm 2 m/s 751 mmHg 87%
03:00 +8°C° 0 mm 3 m/s 750 mmHg 86%
04:00 +8°C° 0 mm 3 m/s 750 mmHg 86%
05:00 +9°C° 0 mm 3 m/s 750 mmHg 85%
06:00 +11°C° 0 mm 3 m/s 749 mmHg 81%
07:00 +13°C° 0 mm 4 m/s 749 mmHg 77%
08:00 +15°C° 0 mm 5 m/s 749 mmHg 73%
09:00 +15°C° 0.1 mm 5 m/s 749 mmHg 75%
10:00 +15°C° 0.1 mm 6 m/s 748 mmHg 78%
11:00 +15°C° 0.1 mm 6 m/s 748 mmHg 80%
12:00 +14°C° 0.4 mm 6 m/s 748 mmHg 83%
13:00 +13°C° 0.4 mm 5 m/s 748 mmHg 86%
14:00 +12°C° 0.4 mm 5 m/s 748 mmHg 90%
15:00 +13°C° 0 mm 4 m/s 748 mmHg 84%
16:00 +13°C° 0 mm 4 m/s 749 mmHg 79%
17:00 +14°C° 0 mm 3 m/s 749 mmHg 74%
18:00 +13°C° 0 mm 2 m/s 749 mmHg 79%
19:00 +12°C° 0 mm 2 m/s 749 mmHg 85%
20:00 +10°C° 0 mm 1 m/s 749 mmHg 91%
21:00 +10°C° 0 mm 1 m/s 749 mmHg 92%
22:00 +9°C° 0 mm 2 m/s 748 mmHg 93%
23:00 +9°C° 0 mm 2 m/s 748 mmHg 93%

13 Mai, Joi

Timp Temperatura Precipitaţii Vânt Presiune Umiditate
00:00 +9°C° 0.1 mm 2 m/s 747 mmHg 93%
01:00 +10°C° 0.1 mm 2 m/s 747 mmHg 93%
02:00 +11°C° 0.1 mm 3 m/s 746 mmHg 93%
03:00 +11°C° 1.3 mm 3 m/s 746 mmHg 95%
04:00 +12°C° 1.3 mm 3 m/s 745 mmHg 96%
05:00 +12°C° 1.3 mm 4 m/s 745 mmHg 97%
06:00 +13°C° 1.2 mm 4 m/s 744 mmHg 97%
07:00 +13°C° 1.2 mm 4 m/s 744 mmHg 96%
08:00 +13°C° 1.2 mm 5 m/s 744 mmHg 95%
09:00 +13°C° 1.1 mm 5 m/s 744 mmHg 95%
10:00 +13°C° 1.1 mm 5 m/s 744 mmHg 94%
11:00 +14°C° 1.1 mm 5 m/s 744 mmHg 94%
12:00 +15°C° 0.3 mm 5 m/s 744 mmHg 87%
13:00 +16°C° 0.3 mm 5 m/s 743 mmHg 81%
14:00 +17°C° 0.3 mm 5 m/s 743 mmHg 75%
15:00 +17°C° 0.4 mm 5 m/s 743 mmHg 77%
16:00 +17°C° 0.4 mm 4 m/s 743 mmHg 79%
17:00 +17°C° 0.4 mm 4 m/s 743 mmHg 81%
18:00 +16°C° 0.1 mm 3 m/s 743 mmHg 85%
19:00 +14°C° 0.1 mm 3 m/s 744 mmHg 89%
20:00 +14°C° 0.1 mm 2 m/s 744 mmHg 94%
21:00 +13°C° 0 mm 2 m/s 744 mmHg 95%
22:00 +13°C° 0 mm 2 m/s 744 mmHg 95%
23:00 +12°C° 0 mm 2 m/s 744 mmHg 96%

14 Mai, Vineri

Timp Temperatura Precipitaţii Vânt Presiune Umiditate
00:00 +12°C° 0.1 mm 2 m/s 744 mmHg 96%
01:00 +12°C° 0.1 mm 2 m/s 743 mmHg 96%
02:00 +12°C° 0.1 mm 2 m/s 743 mmHg 97%
03:00 +12°C° 0.1 mm 2 m/s 743 mmHg 96%
04:00 +12°C° 0.1 mm 2 m/s 743 mmHg 96%
05:00 +12°C° 0.1 mm 3 m/s 742 mmHg 95%
06:00 +12°C° 0.2 mm 3 m/s 742 mmHg 94%
07:00 +13°C° 0.2 mm 4 m/s 742 mmHg 92%
08:00 +14°C° 0.2 mm 4 m/s 742 mmHg 91%
09:00 +14°C° 0.9 mm 4 m/s 741 mmHg 91%
10:00 +15°C° 0.9 mm 4 m/s 741 mmHg 91%
11:00 +16°C° 0.9 mm 3 m/s 741 mmHg 92%
12:00 +17°C° 0.8 mm 4 m/s 741 mmHg 88%
13:00 +18°C° 0.8 mm 4 m/s 741 mmHg 84%
14:00 +19°C° 0.8 mm 4 m/s 740 mmHg 80%
15:00 +19°C° 0.2 mm 4 m/s 740 mmHg 79%
16:00 +19°C° 0.2 mm 3 m/s 740 mmHg 79%
17:00 +19°C° 0.2 mm 3 m/s 740 mmHg 78%
18:00 +17°C° 0 mm 2 m/s 740 mmHg 83%
19:00 +16°C° 0 mm 2 m/s 740 mmHg 88%
20:00 +14°C° 0 mm 1 m/s 740 mmHg 93%
21:00 +14°C° 0 mm 1 m/s 741 mmHg 94%
22:00 +13°C° 0 mm 1 m/s 741 mmHg 95%
23:00 +13°C° 0 mm 1 m/s 741 mmHg 95%
Arată mai mult

Formular de consimțământ

Meteoprog și furnizorii noștri de servicii pot stoca și accesa date personale, precum cookies, identificatori de dispozitiv sau alte tehnologii similare pe dispozitivul dumneavoastră și procesa astfel de date pentru a personaliza conținutul și reclamele, dar și pentru a oferi caracteristici de social media și pentru a analiza traficul.

  • Stocarea și/sau accesarea informațiilor pe dispozitivul dumneavoastră

    Cookies, identificatori de dispozitiv sau alte informații pot fi stocate sau accesate pe dispozitiv în scopurile indicate mai sus.

  • Reclame și conținut personalizat, evaluarea reclamelor și a conținutului, informații despre audiențe și dezvoltarea produselor

    Reclamele și conținutul pot fi personalizate pe baza unui profil. Pot fi adăugate date suplimentare pentru a personaliza mai bine reclamele și conținutul. Performanța reclamelor și conținutului poate fi măsurată. Pot fi obținute informații despre utilizatorii care au văzut reclamele și conținutul. Aceste date pot fi utilizate pentru a dezvolta sau îmbunătăți experiența utilizatorilor, sistemele și software-ul.

Dând clic pe ‘Sunt de acord’, permiteți utilizarea cookie-urilor menționate, a identificatorilor de dispozitiv, balizelor web sau altor tehnologii similare. Setările pot fi modificate din browser-ul dispozitivului dumneavoastră.

În anumite scopuri, interesele legitime pot prima asupra consimțământului. Puteți citi mai multe informații în acest sens în Politica privind Confidențialitatea Datelor și Cookie.